Aktion, Greece

5:36 AM EEST on October 17, 2017 (GMT +0300)
Aktion Air Base

Weather History for LGPZ - October, 2013

Change the Weather History Date:

Tuesday, October 1, 2013

  Actual Average Record
Temperature  
Mean Temperature 70 °F -  
Max Temperature 77 °F 71 °F 90 °F (2012)
Min Temperature 64 °F 58 °F 55 °F (2002)
Cooling Degree Days 6    
Growing Degree Days 20 (Base 50)    
Moisture  
Dew Point 63 °F    
Average Humidity 75    
Maximum Humidity 94    
Minimum Humidity 55    
Precipitation  
Precipitation 0.12 in - - ()
Sea Level Pressure  
Sea Level Pressure 29.62 in    
Wind  
Wind Speed 7 mph ()    
Max Wind Speed 16 mph    
Max Gust Speed -    
Visibility 6.1 miles    
Events Rain , Thunderstorm    
Averages and records for this station are not official NWS values.
T = Trace of Precipitation, MM = Missing Value Source: Averaged Metar Reports

Daily Weather History Graph

Daily Weather History Graph

Search for Another Location

Airport or City:

Trip Planner

Search our weather history database for the weather conditions in past years. The results will help you decide how hot, cold, wet, or windy it might be!

Date:

Astronomy

Oct. 01, 2013 Rise Set
Actual Time 7:32 AM EEST 7:19 PM EEST
Civil Twilight 7:06 AM EEST 7:46 PM EEST
Nautical Twilight 6:35 AM EEST 8:17 PM EEST
Astronomical Twilight 6:04 AM EEST 8:48 PM EEST
Moon 3:51 AM EEST (10/1) 5:11 PM EEST (10/1)
Length of Visible Light 12h 40m
Length of Day
11h 46m
Waning Crescent, 14% of the Moon is Illuminated
Oct 1
Waning Crescent
Oct 5
New
Oct 12
First Quarter
Oct 19
Full
Oct 27
Last Quarter

Hourly Weather History & Observations

Time (EEST) Temp. Dew Point Humidity Pressure Visibility Wind Dir Wind Speed Gust Speed Precip Events Conditions
12:50 AM 68.0 °F 64.4 °F 88% 29.62 in 6.2 mi NE 5.8 mph - N/A   Scattered Clouds
1:50 AM 66.2 °F 64.4 °F 94% 29.62 in 6.2 mi ENE 3.5 mph - N/A   Scattered Clouds
2:50 AM 68.0 °F 64.4 °F 88% 29.62 in 6.2 mi ESE 5.8 mph - N/A   Scattered Clouds
3:00 AM 68 °F 65 °F 85% 29.62 in 6 mi ESE 5.8 mph - -   Partly Cloudy
3:50 AM 68.0 °F 64.4 °F 88% 29.59 in 6.2 mi ENE 6.9 mph - N/A   Scattered Clouds
4:50 AM 68.0 °F 64.4 °F 88% 29.59 in 6.2 mi Calm Calm - N/A Thunderstorm Thunderstorm
5:50 AM 69.8 °F 64.4 °F 83% 29.56 in 6.2 mi NE 9.2 mph - N/A Thunderstorm Thunderstorm
6:20 AM 68.0 °F 64.4 °F 88% 29.56 in 6.2 mi NE 8.1 mph - N/A Thunderstorm Thunderstorm
6:50 AM 68.0 °F 64.4 °F 88% 29.59 in 6.2 mi ENE 11.5 mph - N/A Thunderstorm Thunderstorm
7:20 AM 66.2 °F 62.6 °F 88% 29.59 in 6.2 mi NE 5.8 mph - N/A Rain Rain
7:50 AM 64.4 °F 62.6 °F 94% 29.59 in 6.2 mi East 4.6 mph - N/A   Scattered Clouds
8:20 AM 66.2 °F 62.6 °F 88% 29.59 in 6.2 mi Calm Calm - N/A   Scattered Clouds
8:50 AM 68.0 °F 64.4 °F 88% 29.59 in 6.2 mi Calm Calm - N/A   Scattered Clouds
9:00 AM 68 °F 64 °F 82% 29.60 in 6 mi Calm Calm - -   Partly Cloudy
9:20 AM 69.8 °F 64.4 °F 83% 29.59 in 6.2 mi Variable 3.5 mph - N/A   Scattered Clouds
9:50 AM 71.6 °F 64.4 °F 78% 29.62 in 6.2 mi Calm Calm - N/A   Scattered Clouds
10:20 AM 73.4 °F 64.4 °F 73% 29.62 in 6.2 mi Calm Calm - N/A   Scattered Clouds
10:50 AM 73.4 °F 64.4 °F 73% 29.62 in 6.2 mi West 4.6 mph - N/A   Partly Cloudy
11:20 AM 73.4 °F 62.6 °F 69% 29.62 in 6.2 mi WNW 6.9 mph - N/A   Partly Cloudy
11:50 AM 75.2 °F 62.6 °F 65% 29.62 in 6.2 mi West 8.1 mph - N/A   Scattered Clouds
12:20 PM 71.6 °F 62.6 °F 73% 29.62 in 5.0 mi WNW 9.2 mph - N/A Rain Rain
12:50 PM 68.0 °F 60.8 °F 78% 29.62 in 6.2 mi West 9.2 mph - N/A   Scattered Clouds
1:20 PM 75.2 °F 60.8 °F 61% 29.62 in 6.2 mi West 9.2 mph - N/A   Scattered Clouds
1:50 PM 68.0 °F 62.6 °F 83% 29.65 in 5.0 mi NW 13.8 mph - N/A Rain , Thunderstorm Light Thunderstorms and Rain
2:20 PM 71.6 °F 62.6 °F 73% 29.62 in 6.2 mi NW 8.1 mph - N/A   Scattered Clouds
2:50 PM 73.4 °F 62.6 °F 69% 29.62 in 6.2 mi NW 10.4 mph - N/A   Scattered Clouds
3:00 PM 74 °F 63 °F 61% 29.64 in 6 mi NW 10.4 mph - - Rain Light Rain
3:20 PM 77.0 °F 62.6 °F 61% 29.62 in 6.2 mi NW 10.4 mph - N/A   Scattered Clouds
3:50 PM 77.0 °F 62.6 °F 61% 29.62 in 6.2 mi West 16.1 mph - N/A   Scattered Clouds
4:20 PM 73.4 °F 62.6 °F 69% 29.62 in 6.2 mi West 16.1 mph - N/A   Scattered Clouds
4:50 PM 73.4 °F 60.8 °F 65% 29.62 in 6.2 mi WNW 13.8 mph - N/A   Scattered Clouds
5:20 PM 73.4 °F 60.8 °F 65% 29.62 in 6.2 mi NW 12.7 mph - N/A   Scattered Clouds
5:50 PM 73.4 °F 60.8 °F 65% 29.62 in 6.2 mi NW 11.5 mph - N/A   Scattered Clouds
6:20 PM 71.6 °F 60.8 °F 69% 29.62 in 6.2 mi NW 11.5 mph - N/A   Scattered Clouds
6:50 PM 71.6 °F 60.8 °F 69% 29.62 in 6.2 mi WNW 15.0 mph - N/A   Scattered Clouds
7:20 PM 71.6 °F 60.8 °F 69% 29.65 in 6.2 mi WNW 15.0 mph - N/A   Scattered Clouds
7:50 PM 71.6 °F 60.8 °F 69% 29.65 in 6.2 mi WNW 16.1 mph - N/A   Partly Cloudy
8:50 PM 71.6 °F 59.0 °F 64% 29.65 in 6.2 mi WNW 13.8 mph - N/A   Partly Cloudy
9:00 PM 72 °F 59 °F 55% 29.68 in 6 mi WNW 13.8 mph - -   Scattered Clouds
9:50 PM 71.6 °F 60.8 °F 69% 29.68 in 6.2 mi WNW 10.4 mph - N/A   Partly Cloudy
10:50 PM 69.8 °F 60.8 °F 73% 29.68 in 6.2 mi WNW 11.5 mph - N/A   Partly Cloudy
11:50 PM 69.8 °F 60.8 °F 73% 29.71 in 6.2 mi WNW 13.8 mph - N/A   Partly Cloudy